Home   Weather   Philadelphia   Past weeks

Flag for USA Past Weather in Philadelphia, Pennsylvania, USA — Yesterday and Last 2 Weeks

Now
44 °F

Light rain. Fog.


Feels Like: 41 °F
Forecast: 37 / 44 °F
Wind: 6 mph from East

Location: Philadelphia International Airport

Current Time: Jan 17, 2017 at 6:59:17 pm

Latest Report: Jan 17, 2017 at 6:14 pm


Visibility: 4 mi

Pressure: 30.02 "Hg

Humidity: 93%

Dew Point: 42 °F

Location of PhiladelphiaLocation

Past Weather in Philadelphia — Graph

°F

Philadelphia Temperature Yesterday

Maximum temperature yesterday: 42 °F (at 2:54 pm)
Minimum temperature yesterday: 27 °F (at 4:54 am)
Average temperature yesterday: 35 °F

High & Low Weather Summary for the Past Weeks

 TemperatureHumidityPressure
High66 °F (Jan 12, 2:54 pm)97% (Jan 3, 3:10 pm)30.80 "Hg (Jan 3, 3:10 pm)
Low12 °F (Jan 9, 4:54 am)26% (Jan 4, 6:54 pm)29.48 "Hg (Jan 4, 1:54 am)
Average36 °F69%30.21 "Hg
* Reported Jan 2 5:30 pm — Jan 17 5:54 pm, Philadelphia, Weather by CustomWeather, © 2017

Note: Actual official high and low records may vary slightly from our data, if they occured in-between our weather recording intervals... More about our weather records

Advertising

Philadelphia Weather History for the Previous 24 Hours

Scroll right to see more
 ConditionsComfort  
Time TempWeatherWind HumidityBarometerVisibility
5:54 pm
Tue, Jan 17
44 °FLight rain. Fog.6 mph93%30.02 "Hg5 mi
5:33 pm44 °FLight rain. Fog.6 mph93%30.02 "Hg6 mi
5:06 pm44 °FLight rain. Fog.6 mph89%30.03 "Hg6 mi
4:41 pm45 °FMostly cloudy.8 mph90%30.04 "Hg7 mi
3:54 pm45 °FLight rain. Fog.5 mph86%30.04 "Hg5 mi
2:54 pm44 °FFog.3 mph85%30.08 "Hg5 mi
1:54 pm44 °FFog.5 mph85%30.10 "Hg5 mi
12:54 pm42 °FFog.6 mph85%30.11 "Hg5 mi
12:28 pm42 °FFog.7 mph89%30.12 "Hg5 mi
11:54 am42 °FPartly sunny.No wind82%30.16 "Hg6 mi
10:54 am41 °FLight rain. Overcast.3 mph82%30.21 "Hg6 mi
10:21 am41 °FLight rain. Mostly cloudy.No wind80%30.22 "Hg6 mi
9:54 am41 °FOvercast.No wind80%30.23 "Hg10 mi
8:54 am40 °FOvercast.6 mph77%30.23 "Hg10 mi
7:54 am39 °FOvercast.No wind76%30.22 "Hg10 mi
6:54 am39 °FMostly cloudy.3 mph73%30.22 "Hg10 mi
5:54 am39 °FMostly cloudy.3 mph70%30.24 "Hg10 mi
4:54 am39 °FMostly cloudy.No wind70%30.25 "Hg10 mi
3:54 am39 °FMostly cloudy.No wind70%30.26 "Hg10 mi
2:54 am38 °FMostly cloudy.No wind73%30.28 "Hg10 mi
1:54 am39 °FMostly cloudy.No wind65%30.29 "Hg10 mi
1:37 am39 °FMostly cloudy.No wind65%30.29 "Hg10 mi
12:54 am39 °FMostly cloudy.No wind65%30.30 "Hg10 mi
11:54 pm
Mon, Jan 16
39 °FOvercast.3 mph65%30.33 "Hg10 mi
10:54 pm38 °FOvercast.6 mph68%30.34 "Hg10 mi
9:54 pm39 °FMostly cloudy.3 mph60%30.35 "Hg10 mi
8:54 pm39 °FOvercast.5 mph60%30.36 "Hg10 mi
8:07 pm39 °FMostly cloudy.5 mph60%30.37 "Hg10 mi
6:54 pm39 °FMostly cloudy.5 mph57%30.37 "Hg10 mi
Weather by CustomWeather, © 2017

See weather overviewHow to use our weather pages